This is the latest recevied weather packets stored in our database for station/object N0MR. If no packets are shown the sender has not sent any weather packets the latest 10 day(s).
| Time | Temp. | Humidity | Pressure | Rain* | Wind** | Luminosity | Snow |
|---|---|---|---|---|---|---|---|
| 1777912913 | 7.22° C | 66% | 992.9 hPa | 0 mm | - | - | - |
| 1777912313 | 7.22° C | 66% | 992.7 hPa | 0 mm | - | - | - |
| 1777911713 | 7.22° C | 66% | 992.7 hPa | 0 mm | - | - | - |
| 1777911112 | 7.22° C | 67% | 992.2 hPa | 0 mm | - | - | - |
| 1777910512 | 7.22° C | 67% | 992.2 hPa | 0 mm | - | - | - |
| 1777909912 | 8.33° C | 66% | 991.5 hPa | 0 mm | - | - | - |
| 1777909313 | 8.33° C | 66% | 991.5 hPa | 0 mm | - | - | - |
| 1777908713 | 8.33° C | 67% | 991.1 hPa | 0 mm | - | - | - |
| 1777908112 | 8.33° C | 67% | 991.1 hPa | 0 mm | - | - | - |
| 1777907513 | 8.33° C | 72% | 990.9 hPa | 0 mm | - | - | - |
| 1777906913 | 8.33° C | 72% | 990.9 hPa | 0 mm | - | - | - |
| 1777906314 | 8.89° C | 74% | 990.5 hPa | 0 mm | - | - | - |
| 1777905714 | 8.89° C | 74% | 990.5 hPa | 0 mm | - | - | - |
| 1777905113 | 8.33° C | 79% | 990.5 hPa | 0 mm | - | - | - |
| 1777904514 | 8.33° C | 79% | 990.5 hPa | 0 mm | - | - | - |
| 1777903913 | 7.78° C | 86% | 990.1 hPa | 0 mm | - | - | - |
| 1777903312 | 7.22° C | 86% | 990.2 hPa | 0 mm | - | - | - |
| 1777902713 | 7.22° C | 86% | 990.2 hPa | 0 mm | - | - | - |
| 1777902115 | 6.67° C | 87% | 990.1 hPa | 0 mm | - | - | - |
| 1777901513 | 6.67° C | 87% | 990.1 hPa | 0 mm | - | - | - |
| 1777900914 | 6.67° C | 89% | 989.7 hPa | 0.25 mm | - | - | - |
| 1777900314 | 6.67° C | 89% | 989.7 hPa | 0.25 mm | - | - | - |
| 1777899714 | 6.67° C | 89% | 989.5 hPa | 0.51 mm | - | - | - |
| 1777899114 | 6.67° C | 89% | 989.5 hPa | 0.51 mm | - | - | - |
| 1777898515 | 6.67° C | 89% | 989.9 hPa | 0.51 mm | - | - | - |
* Rain latest hour (hover to see other rain measurements)
** Current wind speed in m/s (hover to see current wind gust speed)